When you browse on this site, cookies collect data to enhance your experience and personalize the content and advertising you see.
Visit our Privacy Policy to learn more. By continuing to use the site, you agree to this use of cookies and data.
  • In United Kingdom
  • List of Countries
  • For 7 days
  • Water Temperature
  • Weather Map
  • Weather Widgets
  • user-avatar
    Login

    Hourly Weather Frankow

    Today, 21 October, Monday

    Time Temperature Precipitation Wind Pressure Humidity
    00:00 +14°C° 0 mm 1 mps 747 mmHg 79%
    01:00 +14°C° 0 mm 1 mps 747 mmHg 80%
    02:00 +14°C° 0 mm 1 mps 747 mmHg 81%
    03:00 +14°C° 0 mm 1 mps 747 mmHg 81%
    04:00 +14°C° 0 mm 2 mps 747 mmHg 82%
    05:00 +14°C° 0 mm 2 mps 747 mmHg 82%
    06:00 +14°C° 0 mm 2 mps 747 mmHg 82%
    07:00 +14°C° 0 mm 2 mps 747 mmHg 77%
    08:00 +16°C° 0 mm 1 mps 748 mmHg 70%
    09:00 +18°C° 0 mm 1 mps 748 mmHg 63%
    10:00 +18°C° 0 mm 0 mps 748 mmHg 57%
    11:00 +21°C° 0 mm 1 mps 749 mmHg 55%
    12:00 +22°C° 0 mm 1 mps 749 mmHg 52%
    13:00 +23°C° 0 mm 1 mps 750 mmHg 50%
    14:00 +22°C° 0 mm 1 mps 749 mmHg 55%
    15:00 +21°C° 0 mm 1 mps 749 mmHg 59%
    16:00 +20°C° 0 mm 1 mps 749 mmHg 64%
    17:00 +20°C° 0 mm 1 mps 750 mmHg 66%
    18:00 +19°C° 0 mm 1 mps 750 mmHg 69%
    19:00 +18°C° 0 mm 1 mps 750 mmHg 72%
    20:00 +16°C° 0 mm 1 mps 750 mmHg 73%
    21:00 +16°C° 0 mm 1 mps 750 mmHg 74%
    22:00 +15°C° 0 mm 1 mps 750 mmHg 76%
    23:00 +15°C° 0 mm 1 mps 750 mmHg 76%

    Tomorrow, 22 October, Tuesday

    Time Temperature Precipitation Wind Pressure Humidity
    00:00 +15°C° 0 mm 1 mps 750 mmHg 77%
    01:00 +15°C° 0 mm 1 mps 750 mmHg 77%
    02:00 +14°C° 0 mm 1 mps 750 mmHg 79%
    03:00 +14°C° 0 mm 1 mps 750 mmHg 80%
    04:00 +14°C° 0 mm 1 mps 750 mmHg 82%
    05:00 +14°C° 0 mm 1 mps 751 mmHg 82%
    06:00 +14°C° 0 mm 1 mps 751 mmHg 82%
    07:00 +14°C° 0 mm 1 mps 751 mmHg 83%
    08:00 +15°C° 0 mm 1 mps 751 mmHg 76%
    09:00 +18°C° 0 mm 1 mps 751 mmHg 69%
    10:00 +20°C° 0 mm 1 mps 751 mmHg 62%
    11:00 +21°C° 0 mm 1 mps 751 mmHg 59%
    12:00 +22°C° 0 mm 1 mps 751 mmHg 56%
    13:00 +23°C° 0 mm 1 mps 751 mmHg 52%
    14:00 +22°C° 0 mm 1 mps 751 mmHg 57%
    15:00 +21°C° 0 mm 1 mps 750 mmHg 61%
    16:00 +20°C° 0 mm 1 mps 750 mmHg 65%
    17:00 +19°C° 0 mm 1 mps 750 mmHg 69%
    18:00 +18°C° 0 mm 1 mps 751 mmHg 73%
    19:00 +16°C° 0 mm 1 mps 751 mmHg 77%
    20:00 +16°C° 0 mm 1 mps 751 mmHg 80%
    21:00 +16°C° 0 mm 1 mps 751 mmHg 82%
    22:00 +15°C° 0 mm 1 mps 750 mmHg 85%
    23:00 +15°C° 0 mm 1 mps 750 mmHg 87%

    Day after tomorrow, 23 October, Wednesday

    Time Temperature Precipitation Wind Pressure Humidity
    00:00 +14°C° 0 mm 1 mps 751 mmHg 89%
    01:00 +14°C° 0 mm 1 mps 751 mmHg 91%
    02:00 +14°C° 0 mm 2 mps 751 mmHg 92%
    03:00 +14°C° 0 mm 2 mps 750 mmHg 93%
    04:00 +13°C° 0 mm 2 mps 750 mmHg 94%
    05:00 +13°C° 0 mm 2 mps 750 mmHg 95%
    06:00 +13°C° 0 mm 2 mps 751 mmHg 95%
    07:00 +13°C° 0 mm 2 mps 751 mmHg 96%
    08:00 +14°C° 0 mm 1 mps 751 mmHg 88%
    09:00 +16°C° 0 mm 1 mps 751 mmHg 81%
    10:00 +18°C° 0 mm 1 mps 751 mmHg 73%
    11:00 +19°C° 0 mm 1 mps 751 mmHg 69%
    12:00 +20°C° 0 mm 1 mps 751 mmHg 65%
    13:00 +19°C° 0 mm 0 mps 750 mmHg 61%
    14:00 +20°C° 0 mm 1 mps 750 mmHg 64%
    15:00 +19°C° 0 mm 1 mps 750 mmHg 67%
    16:00 +19°C° 0 mm 1 mps 750 mmHg 70%
    17:00 +18°C° 0 mm 1 mps 750 mmHg 73%
    18:00 +16°C° 0 mm 2 mps 750 mmHg 76%
    19:00 +15°C° 0 mm 2 mps 750 mmHg 79%
    20:00 +14°C° 0 mm 2 mps 750 mmHg 82%
    21:00 +14°C° 0 mm 2 mps 749 mmHg 84%
    22:00 +13°C° 0 mm 3 mps 749 mmHg 86%
    23:00 +12°C° 0 mm 3 mps 749 mmHg 88%

    24 October, Thursday

    Time Temperature Precipitation Wind Pressure Humidity
    00:00 +12°C° 0 mm 3 mps 749 mmHg 90%
    01:00 +12°C° 0 mm 3 mps 749 mmHg 91%
    02:00 +12°C° 0 mm 3 mps 749 mmHg 92%
    03:00 +12°C° 0 mm 3 mps 748 mmHg 93%
    04:00 +12°C° 0 mm 3 mps 748 mmHg 94%
    05:00 +12°C° 0 mm 3 mps 748 mmHg 94%
    06:00 +12°C° 0 mm 4 mps 747 mmHg 94%
    07:00 +12°C° 0 mm 4 mps 747 mmHg 94%
    08:00 +14°C° 0 mm 4 mps 747 mmHg 86%
    09:00 +15°C° 0 mm 5 mps 747 mmHg 77%
    10:00 +17°C° 0 mm 5 mps 747 mmHg 69%
    11:00 +19°C° 0 mm 5 mps 746 mmHg 63%
    12:00 +21°C° 0 mm 5 mps 746 mmHg 58%
    13:00 +22°C° 0 mm 5 mps 746 mmHg 52%
    14:00 +21°C° 0 mm 4 mps 745 mmHg 55%
    15:00 +20°C° 0 mm 4 mps 745 mmHg 58%
    16:00 +19°C° 0 mm 3 mps 745 mmHg 61%
    17:00 +18°C° 0 mm 3 mps 745 mmHg 65%
    18:00 +17°C° 0 mm 3 mps 745 mmHg 69%
    19:00 +15°C° 0 mm 4 mps 745 mmHg 73%
    20:00 +16°C° 0 mm 3 mps 745 mmHg 74%
    21:00 +14°C° 0 mm 3 mps 745 mmHg 76%
    22:00 +14°C° 0 mm 3 mps 746 mmHg 78%
    23:00 +14°C° 0 mm 2 mps 746 mmHg 78%

    25 October, Friday

    Time Temperature Precipitation Wind Pressure Humidity
    00:00 +14°C° 0 mm 2 mps 746 mmHg 79%
    01:00 +13°C° 0 mm 2 mps 746 mmHg 79%
    02:00 +13°C° 0 mm 2 mps 746 mmHg 79%
    03:00 +13°C° 0 mm 2 mps 746 mmHg 78%
    04:00 +13°C° 0 mm 2 mps 746 mmHg 78%
    05:00 +13°C° 0 mm 2 mps 746 mmHg 76%
    06:00 +13°C° 0 mm 2 mps 747 mmHg 75%
    07:00 +13°C° 0 mm 2 mps 747 mmHg 73%
    08:00 +14°C° 0 mm 3 mps 748 mmHg 67%
    09:00 +17°C° 0 mm 3 mps 748 mmHg 61%
    10:00 +19°C° 0 mm 4 mps 748 mmHg 56%
    11:00 +19°C° 0 mm 4 mps 749 mmHg 56%
    12:00 +20°C° 0 mm 4 mps 749 mmHg 56%
    13:00 +21°C° 0 mm 4 mps 749 mmHg 56%
    14:00 +20°C° 0 mm 3 mps 749 mmHg 62%
    15:00 +18°C° 0 mm 3 mps 749 mmHg 68%
    16:00 +17°C° 0 mm 2 mps 749 mmHg 73%
    17:00 +17°C° 0 mm 2 mps 749 mmHg 78%
    18:00 +16°C° 0 mm 2 mps 749 mmHg 82%
    19:00 +15°C° 0 mm 2 mps 749 mmHg 86%
    20:00 +14°C° 0 mm 1 mps 750 mmHg 87%
    21:00 +14°C° 0 mm 1 mps 750 mmHg 89%
    22:00 +13°C° 0 mm 1 mps 750 mmHg 90%
    23:00 +13°C° 0 mm 1 mps 750 mmHg 90%

    26 October, Saturday

    Time Temperature Precipitation Wind Pressure Humidity
    00:00 +12°C° 0 mm 0 mps 749 mmHg 91%
    01:00 +12°C° 0 mm 0 mps 749 mmHg 91%
    02:00 +12°C° 0 mm 1 mps 749 mmHg 91%
    03:00 +12°C° 0 mm 1 mps 749 mmHg 91%
    04:00 +12°C° 0 mm 1 mps 749 mmHg 92%
    05:00 +12°C° 0 mm 2 mps 748 mmHg 92%
    06:00 +12°C° 0 mm 2 mps 748 mmHg 93%
    07:00 +12°C° 0 mm 2 mps 748 mmHg 93%
    08:00 +13°C° 0 mm 3 mps 748 mmHg 86%
    09:00 +14°C° 0 mm 3 mps 748 mmHg 78%
    10:00 +17°C° 0 mm 4 mps 748 mmHg 71%
    11:00 +18°C° 0 mm 4 mps 748 mmHg 65%
    12:00 +19°C° 0 mm 4 mps 747 mmHg 59%
    13:00 +21°C° 0 mm 5 mps 747 mmHg 53%
    14:00 +20°C° 0 mm 4 mps 746 mmHg 57%
    15:00 +19°C° 0 mm 4 mps 746 mmHg 62%
    16:00 +18°C° 0 mm 3 mps 746 mmHg 66%
    17:00 +17°C° 0 mm 3 mps 746 mmHg 70%
    18:00 +16°C° 0 mm 3 mps 746 mmHg 75%
    19:00 +14°C° 0 mm 3 mps 746 mmHg 79%
    20:00 +14°C° 0 mm 3 mps 746 mmHg 81%
    21:00 +13°C° 0 mm 3 mps 746 mmHg 83%
    22:00 +13°C° 0 mm 3 mps 746 mmHg 84%
    23:00 +13°C° 0 mm 3 mps 746 mmHg 85%

    27 October, Sunday

    Time Temperature Precipitation Wind Pressure Humidity
    00:00 +13°C° 0 mm 3 mps 746 mmHg 86%
    01:00 +12°C° 0 mm 3 mps 746 mmHg 87%
    02:00 +12°C° 0 mm 4 mps 745 mmHg 86%
    03:00 +12°C° 0 mm 4 mps 745 mmHg 85%
    04:00 +12°C° 0 mm 4 mps 745 mmHg 84%
    05:00 +12°C° 0 mm 5 mps 745 mmHg 83%
    06:00 +10°C° 0 mm 5 mps 746 mmHg 81%
    07:00 +10°C° 0 mm 6 mps 746 mmHg 80%
    08:00 +9°C° 0.1 mm 5 mps 747 mmHg 79%
    09:00 +9°C° 0.1 mm 5 mps 747 mmHg 78%
    10:00 +8°C° 0.1 mm 4 mps 748 mmHg 77%
    11:00 +9°C° 0.1 mm 5 mps 748 mmHg 67%
    12:00 +9°C° 0.1 mm 5 mps 748 mmHg 58%
    13:00 +9°C° 0.1 mm 6 mps 749 mmHg 49%
    14:00 +9°C° 0 mm 5 mps 749 mmHg 51%
    15:00 +8°C° 0 mm 4 mps 749 mmHg 52%
    16:00 +8°C° 0 mm 4 mps 749 mmHg 54%
    17:00 +7°C° 0 mm 4 mps 749 mmHg 56%
    18:00 +7°C° 0 mm 4 mps 749 mmHg 57%
    19:00 +6°C° 0 mm 4 mps 750 mmHg 59%
    20:00 +6°C° 0 mm 4 mps 750 mmHg 62%
    21:00 +5°C° 0 mm 4 mps 750 mmHg 65%
    22:00 +5°C° 0 mm 4 mps 750 mmHg 68%
    23:00 +5°C° 0 mm 4 mps 750 mmHg 70%
    Show more